Terminal Aerodrome Forecast
Issued by NWS Aberdeen, SD

Home | Current Version | Previous Version | Text Only | Print | Product List | Glossary On
Versions: 1 2 3 4 5 6 7 8 9 10 11 12 13 14 15 16 17 18 19 20 21 22 23 24 25 26 27 28 29 30 31 32 33 34 35 36 37 38 39 40 41 42 43 44 45 46 47
000
FTAK31 PAFA 211138
TAFABR
TAF
PABR 211138Z 2112/2212 06010KT P6SM SCT007
     FM211400 09012KT 1/2SM FG OVC007
     FM212200 09013KT P6SM FEW007 OVC020=

USA.gov is the U.S. government's official web portal to all federal, state and local government web resources and services.